| time (UTC) | temp C | wind direction | speed KPH | gust KPH | rain 1hr cm | rain 24hr cm | rain mn cm | humidity % | barometer mb |
| 20260505022646 | 16 | 156 | 0.0 | 0.0 | 0.00 | 0.00 | 0.00 | 48 | 1005.9 |
| 20260505022143 | 16 | 205 | 3.2 | 3.2 | 0.00 | 0.00 | 0.00 | 46 | 1005.9 |
| 20260505021639 | 17 | 235 | 0.0 | 0.0 | 0.00 | 0.00 | 0.00 | 46 | 1005.9 |
| 20260505021136 | 17 | 192 | 0.0 | 0.0 | 0.00 | 0.00 | 0.00 | 47 | 1005.9 |
| 20260505020632 | 17 | 192 | 0.0 | 0.0 | 0.00 | 0.00 | 0.00 | 45 | 1005.9 |
| 20260505020128 | 18 | 192 | 1.6 | 3.2 | 0.00 | 0.00 | 0.00 | 43 | 1005.9 |
| 20260505015625 | 18 | 194 | 3.2 | 4.8 | 0.00 | 0.00 | 0.00 | 42 | 1005.7 |
| 20260505015122 | 18 | 200 | 0.0 | 0.0 | 0.00 | 0.00 | 0.00 | 42 | 1005.9 |
| 20260505014619 | 18 | 213 | 1.6 | 1.6 | 0.00 | 0.00 | 0.00 | 44 | 1006.0 |
| 20260505014116 | 18 | 216 | 4.8 | 4.8 | 0.00 | 0.00 | 0.00 | 43 | 1006.0 |
| 20260505013613 | 18 | 213 | 3.2 | 3.2 | 0.00 | 0.00 | 0.00 | 45 | 1005.9 |
| 20260505013110 | 18 | 207 | 4.8 | 4.8 | 0.00 | 0.00 | 0.00 | 43 | 1005.9 |
| 20260505012609 | 20 | 208 | 4.8 | 4.8 | 0.00 | 0.00 | 0.00 | 44 | 1006.3 |
| 20260505012105 | 20 | 209 | 4.8 | 4.8 | 0.00 | 0.00 | 0.00 | 41 | 1006.1 |
| 20260505011600 | 20 | 214 | 6.4 | 8.0 | 0.00 | 0.00 | 0.00 | 37 | 1006.4 |
| 20260505011058 | 19 | 215 | 8.0 | 9.7 | 0.00 | 0.00 | 0.00 | 38 | 1006.3 |
| 20260505010553 | 19 | 196 | 12.9 | 16.1 | 0.00 | 0.00 | 0.00 | 41 | 1006.0 |
| 20260505010050 | 19 | 193 | 1.6 | 8.0 | 0.00 | 0.00 | 0.00 | 38 | 1006.5 |
| 20260505005546 | 18 | 103 | 4.8 | 4.8 | 0.00 | 0.00 | 0.00 | 39 | 1006.7 |
| 20260505005044 | 18 | 344 | 14.5 | 17.7 | 0.00 | 0.00 | 0.00 | 41 | 1006.9 |
| 20260505004541 | 18 | 264 | 3.2 | 3.2 | 0.00 | 0.00 | 0.00 | 43 | 1006.8 |
| 20260505004038 | 17 | 0 | 12.9 | 20.9 | 0.00 | 0.00 | 0.00 | 44 | 1007.2 |
| 20260505003535 | 17 | 299 | 20.9 | 35.4 | 0.00 | 0.00 | 0.00 | 45 | 1006.6 |
| 20260505003032 | 18 | 318 | 25.7 | 32.2 | 0.00 | 0.00 | 0.00 | 44 | 1006.6 |
| 20260505002526 | 18 | 322 | 14.5 | 20.9 | 0.00 | 0.00 | 0.00 | 41 | 1006.6 |
| 20260505002026 | 19 | 11 | 16.1 | 17.7 | 0.00 | 0.00 | 0.00 | 38 | 1006.6 |
| 20260505001523 | 20 | 46 | 9.7 | 12.9 | 0.00 | 0.00 | 0.00 | 39 | 1006.0 |
| 20260505001020 | 20 | 42 | 9.7 | 11.3 | 0.00 | 0.00 | 0.00 | 36 | 1006.3 |
| 20260505000517 | 20 | 73 | 6.4 | 9.7 | 0.00 | 0.00 | 0.00 | 35 | 1005.8 |
| 20260505000015 | 21 | 325 | 9.7 | 14.5 | 0.00 | 0.00 | 0.00 | 34 | 1005.7 |
| 20260504235511 | 21 | 254 | 0.0 | 0.0 | 0.00 | 0.00 | 0.00 | 34 | 1005.4 |
| 20260504235007 | 22 | 239 | 0.0 | 0.0 | 0.00 | 0.00 | 0.00 | 31 | 1005.2 |
| 20260504234505 | 22 | 231 | 0.0 | 0.0 | 0.00 | 0.00 | 0.00 | 29 | 1005.3 |
| 20260504234002 | 22 | 246 | 0.0 | 0.0 | 0.00 | 0.00 | 0.00 | 31 | 1005.3 |
| 20260504233457 | 22 | 253 | 0.0 | 0.0 | 0.00 | 0.00 | 0.00 | 29 | 1005.3 |
| 20260504232954 | 22 | 254 | 1.6 | 1.6 | 0.00 | 0.00 | 0.00 | 29 | 1005.4 |
| 20260504232451 | 23 | 309 | 8.0 | 9.7 | 0.00 | 0.00 | 0.00 | 30 | 1005.3 |
| 20260504231949 | 23 | 255 | 1.6 | 1.6 | 0.00 | 0.00 | 0.00 | 29 | 1005.2 |
| 20260504231445 | 23 | 321 | 1.6 | 3.2 | 0.00 | 0.00 | 0.00 | 26 | 1005.4 |
| 20260504230941 | 22 | 240 | 0.0 | 0.0 | 0.00 | 0.00 | 0.00 | 28 | 1005.8 |
| 20260504230438 | 22 | 134 | 4.8 | 4.8 | 0.00 | 0.00 | 0.00 | 28 | 1005.7 |
| 20260504225937 | 23 | 313 | 6.4 | 8.0 | 0.00 | 0.00 | 0.00 | 30 | 1005.4 |
| 20260504225433 | 23 | 20 | 4.8 | 4.8 | 0.00 | 0.00 | 0.00 | 29 | 1005.6 |
| 20260504224931 | 23 | 282 | 4.8 | 4.8 | 0.00 | 0.00 | 0.00 | 26 | 1005.6 |
| 20260504224427 | 23 | 246 | 4.8 | 8.0 | 0.00 | 0.00 | 0.00 | 26 | 1005.7 |
| 20260504223924 | 23 | 253 | 0.0 | 0.0 | 0.00 | 0.00 | 0.00 | 29 | 1006.1 |
| 20260504223420 | 23 | 11 | 4.8 | 4.8 | 0.00 | 0.00 | 0.00 | 30 | 1005.9 |
| 20260504222916 | 23 | 307 | 4.8 | 8.0 | 0.00 | 0.00 | 0.00 | 29 | 1005.9 |
| 20260504222413 | 23 | 304 | 8.0 | 9.7 | 0.00 | 0.00 | 0.00 | 29 | 1006.3 |
| 20260504221911 | 23 | 313 | 6.4 | 8.0 | 0.00 | 0.00 | 0.00 | 28 | 1006.0 |
| 20260504221408 | 23 | 23 | 6.4 | 9.7 | 0.00 | 0.00 | 0.00 | 30 | 1006.0 |
| 20260504220905 | 23 | 49 | 0.0 | 1.6 | 0.00 | 0.00 | 0.00 | 27 | 1006.0 |
| 20260504220401 | 23 | 262 | 0.0 | 0.0 | 0.00 | 0.00 | 0.00 | 27 | 1006.1 |
| 20260504215859 | 23 | 223 | 0.0 | 0.0 | 0.00 | 0.00 | 0.00 | 28 | 1006.4 |
| 20260504215355 | 23 | 299 | 8.0 | 9.7 | 0.00 | 0.00 | 0.00 | 28 | 1006.5 |
| 20260504214852 | 23 | 228 | 6.4 | 8.0 | 0.00 | 0.00 | 0.00 | 28 | 1006.5 |
| 20260504214348 | 23 | 272 | 6.4 | 8.0 | 0.00 | 0.00 | 0.00 | 28 | 1006.5 |
| 20260504213845 | 23 | 238 | 1.6 | 3.2 | 0.00 | 0.00 | 0.00 | 28 | 1006.7 |
| 20260504213341 | 23 | 314 | 4.8 | 8.0 | 0.00 | 0.00 | 0.00 | 28 | 1006.5 |
| 20260504212838 | 23 | 340 | 6.4 | 8.0 | 0.00 | 0.00 | 0.00 | 30 | 1006.8 |
| 20260504212334 | 23 | 39 | 6.4 | 8.0 | 0.00 | 0.00 | 0.00 | 30 | 1006.8 |
| 20260504211832 | 23 | 350 | 3.2 | 3.2 | 0.00 | 0.00 | 0.00 | 29 | 1007.1 |
| 20260504211328 | 23 | 243 | 3.2 | 3.2 | 0.00 | 0.00 | 0.00 | 28 | 1006.9 |
| 20260504210826 | 23 | 219 | 4.8 | 4.8 | 0.00 | 0.00 | 0.00 | 28 | 1006.8 |
| 20260504210323 | 23 | 255 | 1.6 | 1.6 | 0.00 | 0.00 | 0.00 | 29 | 1007.1 |
| 20260504205820 | 24 | 255 | 1.6 | 1.6 | 0.00 | 0.00 | 0.00 | 29 | 1007.1 |
| 20260504205318 | 23 | 216 | 0.0 | 1.6 | 0.00 | 0.00 | 0.00 | 30 | 1007.2 |
| 20260504204815 | 23 | 251 | 0.0 | 1.6 | 0.00 | 0.00 | 0.00 | 28 | 1007.4 |
| 20260504204314 | 22 | 223 | 3.2 | 3.2 | 0.00 | 0.00 | 0.00 | 30 | 1007.4 |
| 20260504203813 | 22 | 224 | 3.2 | 3.2 | 0.00 | 0.00 | 0.00 | 29 | 1007.3 |
| 20260504203309 | 22 | 228 | 4.8 | 8.0 | 0.00 | 0.00 | 0.00 | 29 | 1007.5 |
| 20260504202804 | 22 | 256 | 1.6 | 3.2 | 0.00 | 0.00 | 0.00 | 30 | 1007.3 |
| 20260504202304 | 22 | 242 | 0.0 | 0.0 | 0.00 | 0.00 | 0.00 | 30 | 1007.4 |
| 20260504201759 | 22 | 306 | 1.6 | 3.2 | 0.00 | 0.00 | 0.00 | 32 | 1007.5 |
| 20260504201256 | 22 | 278 | 1.6 | 3.2 | 0.00 | 0.00 | 0.00 | 33 | 1007.9 |
| 20260504200754 | 22 | 289 | 4.8 | 4.8 | 0.00 | 0.00 | 0.00 | 32 | 1007.5 |
| 20260504200249 | 22 | 212 | 1.6 | 3.2 | 0.00 | 0.00 | 0.00 | 30 | 1007.7 |
| 20260504195746 | 22 | 226 | 4.8 | 4.8 | 0.00 | 0.00 | 0.00 | 29 | 1007.9 |
| 20260504195242 | 22 | 342 | 4.8 | 8.0 | 0.00 | 0.00 | 0.00 | 30 | 1008.0 |
| 20260504194739 | 22 | 278 | 4.8 | 8.0 | 0.00 | 0.00 | 0.00 | 31 | 1008.0 |
| 20260504194235 | 22 | 202 | 3.2 | 3.2 | 0.00 | 0.00 | 0.00 | 32 | 1008.1 |
| 20260504193732 | 22 | 243 | 4.8 | 4.8 | 0.00 | 0.00 | 0.00 | 33 | 1008.1 |
| 20260504193229 | 22 | 236 | 8.0 | 9.7 | 0.00 | 0.00 | 0.00 | 32 | 1008.0 |
| 20260504192728 | 22 | 254 | 3.2 | 3.2 | 0.00 | 0.00 | 0.00 | 34 | 1008.1 |
| 20260504192225 | 22 | 221 | 1.6 | 3.2 | 0.00 | 0.00 | 0.00 | 31 | 1008.4 |
| 20260504191724 | 21 | 273 | 3.2 | 3.2 | 0.00 | 0.00 | 0.00 | 32 | 1008.4 |
| 20260504191220 | 22 | 274 | 1.6 | 4.8 | 0.00 | 0.00 | 0.00 | 31 | 1008.3 |
| 20260504190715 | 21 | 261 | 1.6 | 3.2 | 0.00 | 0.00 | 0.00 | 35 | 1008.9 |
| 20260504190212 | 21 | 228 | 4.8 | 8.0 | 0.00 | 0.00 | 0.00 | 34 | 1008.7 |
| 20260504185709 | 21 | 255 | 1.6 | 3.2 | 0.00 | 0.00 | 0.00 | 36 | 1008.7 |
| 20260504185205 | 21 | 228 | 1.6 | 3.2 | 0.00 | 0.00 | 0.00 | 34 | 1008.5 |
| 20260504184702 | 21 | 203 | 6.4 | 8.0 | 0.00 | 0.00 | 0.00 | 34 | 1008.7 |
| 20260504184157 | 21 | 276 | 1.6 | 3.2 | 0.00 | 0.00 | 0.00 | 36 | 1008.8 |
| 20260504183654 | 20 | 307 | 8.0 | 9.7 | 0.00 | 0.00 | 0.00 | 36 | 1008.9 |
| 20260504183151 | 20 | 220 | 8.0 | 9.7 | 0.00 | 0.00 | 0.00 | 36 | 1008.9 |
| 20260504182649 | 20 | 220 | 0.0 | 0.0 | 0.00 | 0.00 | 0.00 | 35 | 1009.2 |
| 20260504182146 | 20 | 201 | 4.8 | 4.8 | 0.00 | 0.00 | 0.00 | 35 | 1009.1 |
| 20260504181644 | 20 | 213 | 1.6 | 1.6 | 0.00 | 0.00 | 0.00 | 35 | 1009.2 |
| 20260504181141 | 20 | 225 | 4.8 | 8.0 | 0.00 | 0.00 | 0.00 | 37 | 1009.2 |
| 20260504180640 | 20 | 197 | 4.8 | 8.0 | 0.00 | 0.00 | 0.00 | 36 | 1009.1 |
| 20260504180138 | 20 | 210 | 0.0 | 0.0 | 0.00 | 0.00 | 0.00 | 36 | 1009.5 |
| 20260504175635 | 20 | 236 | 4.8 | 4.8 | 0.00 | 0.00 | 0.00 | 37 | 1009.4 |
| 20260504175131 | 18 | 198 | 4.8 | 4.8 | 0.00 | 0.00 | 0.00 | 40 | 1009.2 |
| 20260504174630 | 19 | 211 | 6.4 | 9.7 | 0.00 | 0.00 | 0.00 | 37 | 1009.4 |
| 20260504174126 | 19 | 244 | 1.6 | 3.2 | 0.00 | 0.00 | 0.00 | 37 | 1009.5 |
| 20260504173624 | 18 | 256 | 0.0 | 1.6 | 0.00 | 0.00 | 0.00 | 42 | 1009.5 |
| 20260504173121 | 20 | 261 | 3.2 | 3.2 | 0.00 | 0.00 | 0.00 | 38 | 1009.6 |
| 20260504172617 | 19 | 248 | 3.2 | 3.2 | 0.00 | 0.00 | 0.00 | 40 | 1009.7 |
| 20260504172114 | 19 | 286 | 6.4 | 8.0 | 0.00 | 0.00 | 0.00 | 37 | 1009.5 |
| 20260504171610 | 18 | 268 | 4.8 | 4.8 | 0.00 | 0.00 | 0.00 | 40 | 1009.5 |
| 20260504171108 | 18 | 261 | 1.6 | 1.6 | 0.00 | 0.00 | 0.00 | 40 | 1009.7 |
| 20260504170603 | 18 | 256 | 3.2 | 4.8 | 0.00 | 0.00 | 0.00 | 41 | 1009.7 |
| 20260504150947 | 11 | 299 | 1.6 | 1.6 | 0.00 | 0.00 | 0.00 | 60 | 1009.9 |
| 20260504150444 | 11 | 296 | 1.6 | 1.6 | 0.00 | 0.00 | 0.00 | 60 | 1009.8 |
| 20260504140910 | 7 | 319 | 0.0 | 0.0 | 0.00 | 0.00 | 0.00 | 71 | 1010.0 |
| 20260504140406 | 7 | 319 | 0.0 | 0.0 | 0.00 | 0.00 | 0.00 | 73 | 1009.7 |
| 20260504130331 | 2 | 238 | 0.0 | 0.0 | 0.00 | 0.00 | 0.00 | 89 | 1009.9 |
| 20260504120254 | 2 | 218 | 0.0 | 0.0 | 0.00 | 0.00 | 0.00 | 84 | 1009.6 |
| 20260504110218 | 3 | 257 | 0.0 | 0.0 | 0.00 | 0.00 | 0.00 | 81 | 1009.8 |
| 20260504100142 | 5 | 247 | 0.0 | 0.0 | 0.00 | 0.00 | 0.00 | 76 | 1009.6 |
| 20260504090105 | 6 | 197 | 0.0 | 1.6 | 0.00 | 0.00 | 0.00 | 70 | 1009.6 |
| 20260504081535 | 7 | 295 | 3.2 | 3.2 | 0.00 | 0.00 | 0.00 | 67 | 1009.7 |
| 20260504081031 | 6 | 293 | 3.2 | 4.8 | 0.00 | 0.00 | 0.00 | 69 | 1009.6 |
| 20260504080527 | 6 | 304 | 3.2 | 3.2 | 0.00 | 0.00 | 0.00 | 70 | 1009.7 |
| 20260504050340 | 10 | 226 | 0.0 | 0.0 | 0.00 | 0.00 | 0.00 | 61 | 1009.7 |
| 20260504045838 | 10 | 226 | 0.0 | 0.0 | 0.00 | 0.00 | 0.00 | 61 | 1009.6 |
| 20260504045332 | 9 | 224 | 0.0 | 0.0 | 0.00 | 0.00 | 0.00 | 65 | 1009.9 |
| 20260504044829 | 9 | 222 | 0.0 | 0.0 | 0.00 | 0.00 | 0.00 | 66 | 1009.9 |
| 20260504044327 | 10 | 222 | 0.0 | 0.0 | 0.00 | 0.00 | 0.00 | 65 | 1009.9 |
| 20260504043824 | 10 | 222 | 0.0 | 0.0 | 0.00 | 0.00 | 0.00 | 63 | 1010.0 |
| 20260504043321 | 10 | 222 | 0.0 | 0.0 | 0.00 | 0.00 | 0.00 | 59 | 1010.0 |
| 20260504042818 | 10 | 223 | 0.0 | 0.0 | 0.00 | 0.00 | 0.00 | 60 | 1010.0 |
| 20260504042314 | 10 | 223 | 0.0 | 0.0 | 0.00 | 0.00 | 0.00 | 61 | 1009.8 |
| 20260504041811 | 10 | 216 | 0.0 | 0.0 | 0.00 | 0.00 | 0.00 | 58 | 1010.0 |
| 20260504041307 | 10 | 216 | 0.0 | 0.0 | 0.00 | 0.00 | 0.00 | 60 | 1009.9 |
| 20260504040803 | 10 | 216 | 0.0 | 0.0 | 0.00 | 0.00 | 0.00 | 64 | 1009.8 |
| 20260504040301 | 10 | 216 | 0.0 | 0.0 | 0.00 | 0.00 | 0.00 | 64 | 1009.8 |
| 20260504035756 | 11 | 216 | 0.0 | 0.0 | 0.00 | 0.00 | 0.00 | 61 | 1010.0 |
| 20260504035254 | 11 | 216 | 0.0 | 0.0 | 0.00 | 0.00 | 0.00 | 60 | 1009.8 |
| 20260504034751 | 11 | 216 | 0.0 | 0.0 | 0.00 | 0.00 | 0.00 | 59 | 1009.8 |
| 20260504034248 | 11 | 216 | 0.0 | 0.0 | 0.00 | 0.00 | 0.00 | 59 | 1009.7 |
| 20260504033746 | 11 | 216 | 0.0 | 0.0 | 0.00 | 0.00 | 0.00 | 61 | 1009.8 |
| 20260504033243 | 11 | 216 | 0.0 | 0.0 | 0.00 | 0.00 | 0.00 | 62 | 1009.7 |
| 20260504032740 | 12 | 216 | 0.0 | 0.0 | 0.00 | 0.00 | 0.00 | 62 | 1009.5 |
| 20260504032237 | 12 | 216 | 0.0 | 0.0 | 0.00 | 0.00 | 0.00 | 58 | 1009.7 |
| 20260504031734 | 13 | 216 | 0.0 | 0.0 | 0.00 | 0.00 | 0.00 | 57 | 1009.7 |
| 20260504031231 | 14 | 216 | 0.0 | 0.0 | 0.00 | 0.00 | 0.00 | 49 | 1009.6 |
| 20260504030727 | 15 | 216 | 0.0 | 0.0 | 0.00 | 0.00 | 0.00 | 44 | 1009.6 |
| 20260504030224 | 15 | 216 | 0.0 | 0.0 | 0.00 | 0.00 | 0.00 | 40 | 1009.7 |
| 20260504025721 | 15 | 216 | 0.0 | 0.0 | 0.00 | 0.00 | 0.00 | 40 | 1009.6 |
| 20260504025217 | 15 | 216 | 0.0 | 0.0 | 0.00 | 0.00 | 0.00 | 40 | 1009.6 |
| 20260504024715 | 16 | 216 | 0.0 | 0.0 | 0.00 | 0.00 | 0.00 | 40 | 1009.4 |
| 20260504024211 | 16 | 216 | 0.0 | 0.0 | 0.00 | 0.00 | 0.00 | 39 | 1009.6 |
| 20260504023708 | 16 | 216 | 0.0 | 0.0 | 0.00 | 0.00 | 0.00 | 39 | 1009.6 |
| 20260504023204 | 16 | 216 | 0.0 | 0.0 | 0.00 | 0.00 | 0.00 | 39 | 1009.6 |